Starlink 1625

operational
NORAD ID: 46131 Int'l Des: 2020-057 Owner: SPXS Country: US Constellation: starlink
LEOCIRCULARSTARLINK_TYPE

Über Starlink 1625

Beschreibung wird geladen...

Live-Position

3D-Globus wird geladen...

Nächste Überflüge

Höhenverlauf

Altitude vs Time

uPlot chart will show altitude changes over time

Zweizeiliger Elementsatz

1 46131U 20057Q 25353.88936709 .00076125 00000-0 13777-2 0 9995
2 46131 53.0542 279.4180 0011736 83.9323 276.3022 15.48940942295793
Epoch: 19. Dez. 2025 • Age: 9 hours

Aktueller Status

Höhe 442.3 km
Geschwindigkeit 7.64 km/s
Subsatellitenpunkt -46.46°S, 41.27°E
Startdatum 18. Aug. 2020
Alter 5.3 years
Typ internet

Technische Details

Klassifizierung Payload
Masse 260.00 kg
Trockenmasse 248.00 kg
Gesamtmasse 260.00 kg
Länge 0.20 m
Durchmesser 2.80 m
Spannweite 9.00 m
Form Box + pan
Hersteller SPXS
Bus-Typ Starlink
Phasenstatus In Orbit
Besitzer/Staat SPXS/US

Große Konstellationen

Loading constellations...